Tracking 28125 objects as of 4-Oct-2023
HD Live streaming from Space Station
objects crossing your sky now

THORAD AGENA D DEB

Track THORAD AGENA D DEB now!
10-day predictions


NORAD ID: 4607
Int'l Code: 1970-025K
Perigee: 1,067.4 km
Apogee: 2,039.3 km
Inclination: 100.2 °
Period: 117.0 minutes
Semi major axis: 7924 km
RCS: 0.5865 m2 (medium)
Launch date: April 8, 1970
Source: United States (US)
Launch site: AIR FORCE WESTERN TEST RANGE (AFWTR)

Note: This is SATELLITE DEBRIS
Your satellite tracking list
Your tracking list is empty




NASA's NSSDC Master Catalog

Two Line Element Set (TLE):
1 04607U 70025K   23276.68571896  .00000288  00000-0  14649-2 0  9995
2 04607 100.1989 338.5051 0613239 326.4821 151.2315 12.30712681399787
Source of the keplerian elements: AFSPC